Cloud_Cover
1 2 24 47 18 4 4 15 5 5 5 5 5 10 5 5 5 5 7 24 20 32 90 66 100 90 96 100 100 100 99 72 81 100 96 100 96 100 100 76 36 99 71
3 90 19 78 5 4 8 5 5 5 60 84 94 5 20 5 14 5 95 100 94 100 98 100 100 100 99 99 100 99 95 98 19 7 42 99 99 100 94 100 100 100 100
22 95 0 17 5 5 5 11 46 100 77 99 100 44 26 40 23 53 100 100 100 100 100 100 100 100 98 79 97 100 100 100 81 67 96 86 46 70 98 100 100 100 100
79 48 0 4 10 5 5 24 88 100 100 99 92 96 94 100 98 100 98 100 100 100 100 100 100 100 100 100 64 99 38 85 37 100 76 100 100 100 99 97 100 100 100
92 31 4 10 5 5 5 8 98 95 100 100 100 100 100 98 100 100 100 99 92 100 99 100 71 90 100 100 100 90 95 95 81 80 100 80 82 43 98 92 84 97 99
98 30 5 51 5 71 8 6 14 94 100 64 100 100 96 92 100 99 100 99 94 100 95 34 61 96 100 100 100 95 87 99 87 62 72 96 83 63 71 69 100 82 64
100 84 48 5 18 82 58 64 39 28 100 100 100 100 85 100 100 100 82 100 100 100 100 100 100 100 100 100 97 49 61 63 67 71 94 100 100 92 99 90 88 100 97
100 100 99 20 7 99 100 99 68 100 99 100 99 99 100 100 100 100 100 100 100 100 100 100 99 100 100 100 100 88 100 45 58 78 93 100 100 100 100 100 84 33 81
100 100 100 75 99 99 100 100 100 54 100 100 100 100 100 100 100 100 100 100 100 100 100 100 100 100 100 100 100 62 7 32 75 66 85 74 100 100 100 100 14 77 62
100 100 100 100 100 100 100 100 100 100 100 100 95 100 100 100 100 100 100 100 100 100 100 100 100 100 100 100 97 100 96 79 59 18 64 64 32 97 99 99 100 100 96
100 100 100 100 100 100 100 100 100 100 100 97 24 8 24 86 100 100 100 100 100 100 100 100 100 100 98 75 94 100 100 91 74 100 100 29 57 79 86 100 100 100 100
100 100 100 100 100 100 100 100 100 100 100 100 100 99 76 84 100 100 100 100 100 96 100 100 100 97 100 91 17 36 40 88 87 100 100 79 100 100 100 100 95 100 100
100 100 100 100 100 100 100 100 100 100 100 100 100 100 95 100 100 100 100 100 100 100 100 94 99 95 92 97 100 99 80 44 100 100 100 100 95 100 100 100 100 100 100
100 100 100 100 100 100 100 100 100 100 100 100 100 100 100 100 100 100 100 100 100 100 100 100 100 100 93 100 100 100 97 100 100 90 100 100 100 100 100 100 100 100 100
100 100 100 100 100 100 100 100 100 100 100 100 100 100 100 100 100 100 100 100 100 100 100 100 100 100 100 100 100 100 100 100 100 100 100 100 100 100 100 100 100 100 100
100 100 100 100 100 100 100 100 100 100 100 100 100 100 100 100 100 100 100 100 100 100 100 100 100 100 100 100 100 100 100 100 100 100 100 100 100 100 100 100 100 100 100
100 100 100 100 100 100 100 100 100 100 100 100 100 100 100 100 100 100 100 100 100 100 100 100 82 100 97 7 14 100 100 38 7 5 5 6 4 62 100 100 100 100 78
100 100 100 100 100 100 100 100 100 100 100 100 100 100 100 100 100 100 100 90 77 86 84 83 98 100 89 77 50 60 22 5 5 5 0 0 0 0 1 10 0 3 32
94 100 100 100 100 100 100 100 100 100 100 100 100 100 100 100 100 100 100 100 100 77 77 81 64 84 100 100 82 83 77 84 62 5 5 5 1 1 0 0 0 1 1
87 100 100 100 100 100 100 100 100 100 100 100 100 100 100 100 100 100 100 100 100 100 97 76 88 97 99 100 100 92 72 63 79 65 8 5 5 5 5 9 6 1 0
100 100 100 100 100 100 100 100 100 100 100 100 100 100 100 100 100 100 100 100 100 100 100 100 100 100 100 100 100 100 98 93 96 76 76 60 16 6 6 5 5 5 5
100 100 100 100 100 100 100 100 100 100 100 100 100 100 100 100 100 100 100 100 100 100 100 100 100 100 100 100 100 100 100 100 100 100 100 100 92 73 72 64 63 28 16
100 100 100 100 100 100 100 100 100 100 100 100 100 100 100 100 97 100 100 100 100 100 100 100 100 100 100 100 100 100 100 100 100 100 100 100 100 100 100 100 100 88 84
100 100 100 100 100 100 100 100 100 100 100 100 100 100 100 99 100 100 100 100 100 100 100 100 100 100 100 100 100 100 100 100 100 100 100 100 100 100 100 100 100 100 100
100 100 100 100 100 100 100 100 100 100 100 100 100 100 100 100 100 100 100 100 100 100 100 100 100 100 100 100 100 100 100 100 100 100 100 100 100 100 100 100 100 100 100
100 100 100 100 100 100 100 100 100 100 100 100 100 100 100 100 100 100 100 100 100 100 100 100 100 100 100 100 100 100 100 100 100 100 100 100 100 100 100 100 100 100 100